Probability
0 0 0 0 0 0 0 0 0 0 0 0 0 0 0 0 0 0 0 0 0 0 0 0 0 0 0 0 0 0 0 0 0 0 0 0 0 0 0 0 0 0 0 0
0 0 0 0 0 0 0 0 0 0 0 0 0 0 0 0 0 0 0 0 0 0 0 0 0 0 0 0 0 0 0 0 0 0 0 0 0 0 0 0 0 0 0 0
0 0 0 0 0 0 0 0 0 0 0 0 0 0 0 0 0 0 0 0 0 0 0 0 0 0 0 0 0 0 0 0 0 0 0 0 0 0 0 0 0 0 0 0
0 0 0 0 0 0 0 0 0 0 0 0 0 0 0 0 0 0 0 0 0 0 0 0 0 0 0 0 0 0 0 0 0 0 0 0 0 0 0 0 0 0 0 0
0 0 0 0 0 0 0 0 0 0 0 0 0 0 0 0 0 0 0 0 0 0 0 0 0 0 0 0 0 0 0 0 0 0 0 0 0 0 0 0 0 0 0 0
0 0 0 0 0 0 0 0 0 0 0 0 0 0 0 0 0 0 0 0 0 0 0 0 0 0 0 0 0 0 0 0 0 0 0 0 0 0 0 0 0 0 0 0
0 0 0 0 0 0 0 0 0 0 0 0 0 0 0 0 0 0 0 0 0 0 0 0 0 0 0 0 0 0 0 0 0 0 0 0 0 0 0 0 0 0 0 0
0 0 0 0 0 0 0 0 0 0 0 0 0 0 0 0 0 0 0 0 0 0 0 0 0 0 0 0 0 0 0 0 0 0 0 0 0 0 0 0 0 0 0 0
0 0 0 0 0 0 0 0 0 0 0 0 0 0 0 0 0 0 0 0 0 0 0 0 0 0 0 0 0 0 0 0 0 0 0 0 0 0 0 0 0 0 0 0
0 0 0 0 0 0 0 0 0 0 0 0 0 0 0 0 0 0 0 0 0 0 0 0 0 0 0 0 0 0 0 0 0 0 0 0 0 0 0 0 0 0 0 0
0 0 0 0 0 0 0 0 0 0 0 0 0 0 0 0 0 0 0 0 0 0 0 0 0 0 0 0 0 0 0 0 0 0 0 0 0 0 0 0 0 0 0 0
0 0 0 0 0 0 0 0 0 0 0 0 0 0 0 0 0 0 0 0 0 0 0 0 0 0 0 0 0 0 0 0 0 0 0 0 0 0 0 0 0 0 0 0
0 0 0 0 0 0 0 0 0 0 0 0 0 0 0 0 0 0 0 0 0 0 0 0 0 0 0 0 0 0 0 0 0 0 0 0 0 0 0 0 0 0 0 0
0 0 0 0 0 0 0 0 0 0 0 0 0 0 0 0 0 0 0 0 0 0 0 0 0 0 0 0 0 0 0 0 0 0 0 0 0 0 0 0 0 0 0 0
0 0 0 0 0 0 0 0 0 0 0 0 0 0 0 0 0 0 0 0 0 0 0 0 0 0 0 0 0 0 0 0 0 0 0 0 0 0 0 0 0 0 0 0
0 0 0 0 0 0 0 0 0 0 0 0 0 0 0 0 0 0 0 0 0 0 0 0 0 0 0 0 0 0 0 0 0 0 0 0 0 0 0 0 0 0 0 0
0 0 0 0 0 0 0 0 0 0 0 0 0 0 0 0 0 0 0 0 0 0 0 0 0 0 0 0 0 0 0 0 0 0 0 0 0 0 0 0 0 0 0 0
0 0 0 0 0 0 0 0 0 0 0 0 0 0 0 0 0 0 0 0 0 0 0 0 0 0 0 0 0 0 0 0 0 0 0 0 0 0 0 0 0 0 0 0
0 0 0 0 0 0 0 0 0 0 0 0 0 0 0 0 0 0 0 0 0 0 0 0 0 0 0 0 0 0 0 0 0 0 0 0 0 0 0 0 0 0 0 0
0 0 0 0 0 0 0 0 0 0 0 0 0 0 0 0 0 0 0 0 0 0 0 0 0 0 0 0 0 0 0 0 0 0 0 0 0 0 0 0 0 0 0 0
0 0 0 0 0 0 0 0 0 0 0 0 0 0 0 0 0 0 0 0 0 0 0 0 0 0 0 0 0 0 0 0 0 0 0 0 0 0 0 0 0 0 0 0
0 0 0 0 0 0 0 0 0 0 0 0 0 0 0 0 0 0 0 0 0 0 0 0 0 0 0 0 0 0 0 0 0 0 0 0 0 0 0 0 0 0 0 0
0 0 0 0 0 0 0 0 0 0 0 0 0 0 0 0 0 0 0 0 0 0 0 0 0 0 0 0 0 0 0 0 0 0 0 0 0 0 0 0 0 0 0 0
0 0 0 0 0 0 0 0 0 0 0 0 0 0 0 0 0 0 0 0 0 0 0 0 0 0 0 0 0 0 0 0 0 0 0 0 0 0 0 0 0 0 0 0
0 0 0 0 0 0 0 0 0 0 0 0 0 0 0 0 0 0 0 0 0 0 0 0 0 0 0 0 0 0 0 0 0 0 0 0 0 0 0 0 0 0 0 0
0 0 0 0 0 0 0 0 0 0 0 0 0 0 0 0 0 0 0 0 0 0 0 0 0 0 0 0 0 0 0 0 0 0 0 0 0 0 0 0 0 0 0 0
0 0 0 0 0 0 0 0 0 0 0 0 0 0 0 0 0 0 0 0 0 0 0 0 0 0 0 0 0 0 0 0 0 0 0 0 0 0 0 0 0 0 0 0
Wind_Speed
7 7 6 8 9 8 9 9 9 9 8 11 7 7 7 6 5 5 5 4 4 4 3 2 2 1 0 1 1 2 3 3 4 4 4 4 5 5 6 6 6 6 6 7
6 6 6 9 11 11 11 11 12 11 13 9 6 5 5 6 6 6 6 6 5 4 4 3 3 2 1 0 0 1 2 3 3 3 4 4 4 5 5 6 6 6 6 6
5 5 5 9 11 11 8 8 9 13 12 5 5 6 8 7 7 7 7 6 5 5 5 4 4 3 3 2 1 1 1 2 2 3 3 4 4 5 5 5 5 6 6 6
4 5 7 9 3 6 8 8 10 9 7 7 8 7 5 6 7 7 6 6 6 5 4 3 3 3 3 2 2 1 1 1 2 2 3 3 4 4 4 3 4 4 5 5
2 4 11 10 4 4 5 7 8 10 9 6 3 1 4 5 6 7 7 6 5 5 4 4 4 4 4 3 2 1 1 1 1 1 2 3 3 3 3 3 3 3 4 5
2 4 8 7 2 2 2 6 5 6 6 4 4 2 6 4 4 4 4 4 4 4 3 4 4 5 5 4 3 2 2 1 0 1 1 1 2 2 2 2 2 3 4 4
6 7 12 8 2 3 3 7 2 4 5 6 7 7 4 2 3 3 3 4 4 4 4 5 5 5 5 4 4 3 2 1 1 1 0 0 1 1 1 2 3 3 3 4
6 8 13 5 5 7 9 3 2 3 4 6 6 4 3 4 4 4 4 4 4 4 4 4 5 6 5 5 4 3 3 2 1 0 0 1 1 1 2 2 2 3 3 3
12 13 7 5 9 7 4 4 4 4 5 5 5 5 5 4 5 5 5 5 4 5 4 4 5 6 6 5 4 4 3 2 1 1 1 1 1 1 1 1 1 2 2 2
8 12 10 9 8 7 6 7 6 6 5 5 6 6 5 5 5 4 5 5 5 5 5 5 5 6 6 4 5 4 4 3 2 1 0 1 1 0 0 0 1 1 2 2
10 10 7 8 9 9 7 6 6 5 5 5 6 6 6 5 5 5 5 4 5 6 7 7 5 5 5 5 5 5 4 3 2 2 1 1 0 0 1 1 1 1 1 2
12 9 7 7 5 5 6 7 7 6 5 5 6 7 6 6 6 5 5 4 4 5 6 5 5 5 5 5 6 5 4 3 2 2 2 1 0 1 2 1 3 3 3 3
13 9 8 9 7 6 7 7 7 7 7 6 5 5 5 5 5 4 4 5 5 6 5 5 5 5 5 5 6 6 5 4 3 2 2 1 1 1 1 2 3 4 5 6
11 8 10 9 9 8 7 7 6 5 5 5 5 4 4 4 3 4 5 5 4 4 4 4 5 5 5 5 5 5 5 5 4 3 2 2 2 1 1 1 2 3 4 6
11 11 12 9 8 6 5 4 4 5 4 4 3 4 4 4 5 5 4 3 3 3 4 4 5 5 4 5 6 5 4 3 3 3 2 2 2 1 1 1 2 2 2 4
8 7 8 8 9 7 6 5 6 6 5 5 4 5 5 5 4 3 3 3 4 5 5 5 5 4 5 5 5 4 4 6 5 3 3 2 2 2 1 1 2 2 2 3
9 9 8 8 9 8 7 8 7 7 6 6 6 5 3 3 3 3 3 3 4 4 4 5 5 4 5 5 5 4 3 4 6 3 3 3 2 2 2 2 2 2 2 4
12 11 9 8 7 7 7 7 6 6 6 6 5 4 4 5 5 5 4 2 2 2 3 4 4 4 5 5 5 4 4 4 3 3 3 3 2 2 2 2 2 2 2 3
8 9 9 8 8 7 6 6 6 6 5 4 5 5 6 6 5 4 3 3 4 4 4 4 7 5 5 6 6 4 4 4 3 3 3 4 3 2 2 2 2 2 2 2
5 5 6 6 5 5 5 5 5 4 4 4 4 4 5 5 4 4 4 4 5 4 4 5 5 4 4 5 7 4 4 5 4 3 3 3 2 2 2 2 2 2 2 3
5 5 5 4 4 4 4 4 4 5 4 5 6 6 6 4 4 4 4 4 4 4 5 7 4 4 4 5 7 4 4 4 4 4 3 3 3 3 2 2 2 2 3 3
4 4 4 4 4 4 4 3 4 4 4 4 5 5 5 4 5 4 5 5 4 6 4 4 3 6 7 7 4 4 4 4 4 3 3 3 3 3 3 3 3 3 3 3
4 4 5 5 5 4 3 3 5 5 5 6 6 6 6 5 5 5 5 4 4 7 5 4 7 10 10 6 4 4 4 4 4 4 3 3 3 3 3 3 3 3 3 3
5 5 5 4 3 3 5 6 5 4 5 5 5 6 5 4 4 4 3 6 8 8 5 7 11 11 10 4 4 4 4 4 4 3 3 3 3 3 3 3 3 3 3 4
5 5 5 4 5 6 6 5 4 4 4 4 5 5 5 4 5 4 4 5 9 8 4 8 12 11 6 4 5 4 4 4 4 4 3 3 3 3 3 3 3 3 3 3
5 5 6 6 6 5 4 4 4 4 4 4 4 4 4 3 4 4 4 5 6 8 5 4 5 7 5 5 5 5 4 4 4 4 4 4 4 3 3 3 4 4 3 4
6 5 4 5 5 6 5 5 6 6 6 6 5 4 4 4 4 4 5 4 5 5 4 4 4 4 4 5 4 4 4 4 3 3 3 3 3 3 4 4 3 3 3 4
Wind_Direction
252 254 243 238 239 224 214 213 221 243 245 256 241 233 238 235 227 228 236 229 221 220 224 228 228 224 223 354 5 20 29 26 15 10 15 18 17 16 17 20 23 23 23 20
280 264 257 258 246 230 228 227 236 255 267 254 239 229 235 230 219 225 230 228 222 218 217 216 213 206 191 155 31 51 48 29 15 17 21 19 17 18 22 21 20 25 26 22
280 305 320 270 235 211 211 211 206 232 245 248 241 234 230 225 221 224 226 220 213 212 214 214 204 190 186 182 134 87 62 32 21 25 27 21 21 23 21 18 20 23 19 17
291 340 259 246 243 197 215 234 215 227 240 226 229 232 232 217 213 223 221 215 213 208 207 205 190 179 169 149 137 114 70 31 19 29 30 24 26 22 14 14 18 17 15 9
273 286 280 288 259 193 200 264 228 228 240 239 239 296 281 235 212 216 215 209 206 201 193 186 183 175 156 151 145 130 107 29 11 33 39 32 25 12 6 17 18 13 9 10
219 256 258 257 264 157 105 280 256 208 220 215 152 221 261 238 212 218 215 200 193 182 172 181 188 167 160 170 169 188 199 198 90 65 67 42 18 6 1 13 15 12 13 7
221 245 266 257 231 126 184 249 251 192 200 185 192 214 236 222 216 213 207 198 183 176 185 197 182 166 174 183 201 206 185 163 138 112 124 91 42 21 13 18 20 16 12 3
192 219 252 231 157 192 221 240 223 209 207 207 222 239 237 226 223 214 208 200 185 185 201 197 177 174 187 205 208 179 163 157 158 148 91 72 64 30 29 31 26 10 7 360
201 221 235 201 208 228 211 222 226 219 223 214 224 233 235 234 227 220 213 208 197 193 202 204 190 185 198 211 180 163 159 166 173 146 75 57 68 43 28 25 24 357 353 346
247 254 249 248 245 248 228 228 236 229 224 212 225 235 239 241 235 228 221 214 202 193 204 215 205 200 203 189 169 163 170 179 175 161 135 55 41 34 49 347 338 332 332 328
252 265 281 263 239 237 238 236 239 239 227 222 227 237 232 235 235 230 227 218 204 203 211 218 205 203 198 180 166 170 177 179 176 176 176 177 251 263 262 245 245 284 275 284
240 233 221 250 245 232 230 236 233 233 240 234 223 231 233 235 233 228 226 220 216 213 213 213 198 199 194 179 171 172 180 184 183 181 184 183 211 318 322 315 334 339 326 321
247 256 245 258 259 244 237 236 232 226 230 239 235 227 229 235 232 226 224 219 218 215 210 201 193 196 192 177 173 178 186 185 179 179 183 188 196 223 298 322 334 344 340 335
250 257 262 255 251 247 236 235 234 235 234 233 231 231 229 234 236 228 225 223 218 209 202 194 192 202 190 173 172 180 183 184 178 182 187 193 201 214 233 277 309 317 328 330
249 237 244 256 256 248 238 231 229 236 237 238 226 226 223 225 234 236 231 210 191 194 199 192 196 205 182 171 174 179 179 181 179 178 184 190 194 204 228 259 284 299 311 322
259 253 247 248 249 246 235 226 227 236 232 229 229 230 228 229 235 236 219 187 184 203 205 198 205 200 176 172 173 177 184 186 175 174 180 184 189 206 227 253 277 290 298 307
254 259 248 245 244 241 232 227 226 230 225 224 228 227 221 220 228 230 223 210 206 209 202 198 201 182 174 174 173 176 176 183 180 174 183 190 197 211 223 238 262 279 286 301
237 245 241 236 236 237 237 231 227 225 222 223 217 205 208 212 221 227 219 195 184 207 210 197 184 172 174 175 174 172 171 173 174 178 185 194 203 209 215 230 252 272 289 301
244 245 245 239 233 228 231 228 226 225 224 210 202 212 218 223 223 215 192 184 197 220 219 191 181 173 177 185 176 171 169 171 173 179 187 208 208 201 214 230 247 261 278 291
254 248 243 240 231 222 226 227 221 222 218 203 207 218 227 225 206 192 192 212 218 214 192 183 177 176 182 186 179 169 171 172 176 181 188 196 200 208 220 233 243 254 266 277
259 256 246 239 239 236 231 224 215 223 221 205 207 217 222 217 197 187 194 230 230 191 184 186 178 179 180 184 181 169 173 175 178 183 191 198 203 212 223 235 245 257 266 277
253 249 246 240 238 248 245 229 223 223 220 218 218 213 209 212 205 205 214 220 207 192 183 179 177 188 188 183 170 168 175 178 180 183 192 198 204 215 225 233 243 255 263 270
253 246 244 240 236 243 251 239 228 221 221 220 216 211 210 210 197 199 227 211 188 193 184 186 192 192 189 177 166 172 178 182 185 188 195 202 209 215 223 231 239 248 256 265
254 248 244 240 229 235 246 245 231 228 227 227 223 214 203 205 219 218 211 196 196 194 189 194 195 196 187 167 169 175 182 187 189 191 194 202 208 212 221 230 239 246 253 262
249 246 241 230 228 236 241 240 235 234 228 232 232 219 209 204 209 206 185 191 196 192 188 198 198 196 181 166 176 182 186 191 191 189 194 199 207 214 226 234 239 247 253 259
245 241 237 231 230 232 223 214 221 226 219 228 233 219 208 202 197 190 184 188 195 194 188 187 190 189 173 174 182 186 188 199 208 202 198 204 210 216 226 235 242 244 250 256
243 242 242 246 241 228 220 216 222 226 218 218 227 212 196 191 188 188 186 186 189 188 183 182 181 176 174 178 182 186 188 190 193 196 200 205 209 217 226 233 239 245 250 256